This is the latest recevied weather packets stored in our database for station/object UR7D-12. If no packets are shown the sender has not sent any weather packets the latest 10 day(s).
| Time | Temp. | Humidity | Pressure | Rain* | Wind** | Luminosity | Snow |
|---|---|---|---|---|---|---|---|
| 1777494755 | 6.11° C | 46% | 997.3 hPa | 0 mm | - | - | - |
| 1777494456 | 6.11° C | 46% | 997.1 hPa | 0 mm | - | - | - |
| 1777494156 | 6.11° C | 46% | 997.1 hPa | 0 mm | - | - | - |
| 1777493557 | 5.56° C | 47% | 997 hPa | 0 mm | - | - | - |
| 1777492956 | 6.11° C | 45% | 997 hPa | 0 mm | - | - | - |
| 1777492356 | 6.67° C | 44% | 996.8 hPa | 0 mm | - | - | - |
| 1777492056 | 6.67° C | 44% | 996.8 hPa | 0 mm | - | - | - |
| 1777491755 | 7.22° C | 43% | 996.8 hPa | 0 mm | - | - | - |
| 1777491453 | 7.22° C | 43% | 996.8 hPa | 0 mm | - | - | - |
| 1777491155 | 7.22° C | 43% | 996.7 hPa | 0 mm | - | - | - |
| 1777490252 | 7.22° C | 42% | 996.7 hPa | 0 mm | - | - | - |
| 1777489954 | 7.22° C | 42% | 996.6 hPa | 0 mm | - | - | - |
| 1777489652 | 7.22° C | 42% | 996.6 hPa | 0 mm | - | - | - |
| 1777489053 | 7.22° C | 42% | 996.6 hPa | 0 mm | - | - | - |
| 1777488752 | 7.22° C | 42% | 996.5 hPa | 0 mm | - | - | - |
| 1777488453 | 7.22° C | 43% | 996.4 hPa | 0 mm | - | - | - |
| 1777488150 | 7.22° C | 43% | 996.5 hPa | 0 mm | - | - | - |
| 1777487850 | 7.22° C | 43% | 996.4 hPa | 0 mm | - | - | - |
| 1777487550 | 7.22° C | 42% | 996.4 hPa | 0 mm | - | - | - |
| 1777487249 | 7.78° C | 41% | 996.2 hPa | 0 mm | - | - | - |
| 1777486949 | 7.78° C | 41% | 996 hPa | 0 mm | - | - | - |
| 1777486350 | 7.78° C | 41% | 995.9 hPa | 0 mm | - | - | - |
| 1777486048 | 7.78° C | 41% | 995.9 hPa | 0 mm | - | - | - |
| 1777485750 | 7.78° C | 40% | 995.8 hPa | 0 mm | - | - | - |
| 1777485147 | 8.33° C | 39% | 995.6 hPa | 0 mm | - | - | - |
* Rain latest hour (hover to see other rain measurements)
** Current wind speed in m/s (hover to see current wind gust speed)